Wind_Speed
66 66 64 62 59 57 55 54 54 52 49 46 46 45 44 43 44 44 42 39 38 36 33 33 33 32 32 32 32 31 29 28 28 27 26 25 22 20 21 23 24 25
68 68 67 64 61 59 58 56 55 55 53 51 49 48 46 43 43 43 42 41 41 37 33 33 33 33 32 32 32 30 28 28 28 28 27 25 23 22 23 24 26 28
69 71 70 66 64 62 60 57 56 55 56 54 52 51 47 44 42 42 41 42 41 38 34 34 34 34 33 32 32 30 29 29 29 29 28 27 25 24 24 25 27 29
70 72 72 69 67 64 61 60 58 57 57 57 54 52 49 45 43 42 42 41 40 38 36 36 36 36 35 34 33 31 30 31 31 30 29 28 27 25 24 26 27 29
70 72 74 72 69 66 63 62 62 60 59 59 56 52 49 47 45 44 44 43 40 39 39 38 38 38 38 36 35 33 32 32 31 29 28 28 28 26 25 25 27 29
72 72 74 74 71 69 66 63 63 63 62 60 58 55 51 49 49 47 47 45 43 41 40 40 40 40 40 39 37 35 34 33 32 30 29 29 29 28 26 25 26 28
74 73 74 75 73 71 68 65 63 64 63 61 58 56 55 53 52 51 49 49 47 44 43 42 41 42 41 40 38 36 35 35 34 32 31 31 30 29 27 26 25 25
76 74 74 76 76 74 72 68 65 63 64 62 57 55 54 53 53 51 49 50 50 47 45 44 43 43 43 41 39 37 38 38 37 35 34 34 32 31 29 28 26 24
78 76 75 77 78 77 75 71 67 64 64 64 61 56 53 51 51 50 50 51 53 51 47 47 46 45 45 44 41 40 41 41 39 37 37 37 36 34 33 32 30 28
81 78 77 79 80 80 77 73 69 66 66 67 64 60 57 52 48 50 52 53 54 55 51 50 49 49 48 47 44 44 45 44 41 40 41 41 39 37 35 33 32 32
83 81 80 80 81 80 79 76 71 67 67 67 67 65 63 57 51 51 53 52 54 58 57 54 52 50 50 49 47 47 47 45 42 43 45 44 41 39 38 37 36 35
85 83 81 81 83 81 79 78 74 68 65 66 68 68 67 64 59 57 55 52 53 57 59 57 54 51 50 49 48 48 48 47 45 47 49 48 45 43 44 45 44 39
85 85 83 82 83 82 81 80 75 68 64 66 69 70 69 68 66 63 60 55 53 55 57 57 55 53 51 50 49 49 50 50 49 50 53 50 48 47 47 50 49 40
86 86 85 82 82 83 83 82 77 70 66 66 70 71 71 70 68 67 64 59 54 53 55 56 56 54 53 52 52 52 53 53 51 53 56 53 52 50 46 47 48 42
87 87 86 83 82 83 83 82 78 73 69 67 69 72 72 71 71 71 69 64 59 55 53 55 58 58 56 55 55 54 55 55 54 55 58 58 56 51 43 41 44 43
88 88 87 85 83 83 83 82 77 73 71 70 70 72 73 73 73 74 72 70 68 64 60 59 61 62 61 59 57 56 56 57 57 58 60 60 58 52 44 42 43 44
88 89 88 87 85 84 83 83 79 76 75 74 73 74 74 74 74 74 72 72 72 71 69 69 69 67 64 61 59 58 59 60 60 60 61 61 58 53 48 47 46 45
89 90 90 88 87 85 85 84 82 80 78 77 77 77 77 76 75 75 75 75 76 74 74 75 74 69 65 63 61 61 62 62 62 63 63 62 60 55 52 50 48 47
89 91 91 90 89 89 87 85 83 82 80 78 79 79 79 78 77 77 77 78 78 76 75 75 72 69 66 64 64 64 64 63 64 64 64 63 60 57 53 52 51 49
89 92 92 92 92 91 90 88 85 83 81 79 78 78 78 78 78 77 78 78 78 76 75 74 72 70 68 67 66 66 65 65 65 65 65 63 60 57 55 55 54 52
89 92 93 93 93 93 91 89 88 85 83 81 80 79 78 77 77 76 76 76 76 76 75 75 74 72 71 70 70 69 68 67 67 66 65 63 61 60 59 58 57 56
89 92 94 95 95 94 92 90 89 87 85 84 83 82 81 79 79 78 77 76 76 76 76 75 74 74 73 72 72 72 71 70 69 67 66 65 64 64 63 62 61 60
90 92 95 96 96 95 93 92 90 87 86 84 84 83 83 82 82 82 81 80 79 78 77 75 74 74 73 73 72 72 71 71 69 68 67 67 66 66 66 65 64 63
91 93 96 97 98 96 95 93 91 89 86 85 83 82 82 81 82 82 82 82 81 80 78 77 76 75 74 73 73 72 71 70 69 68 68 68 68 68 67 67 66 66
91 93 96 98 98 98 96 95 92 90 87 86 84 83 82 80 79 79 80 80 80 79 77 76 75 74 74 73 72 71 70 69 68 68 68 69 69 68 68 68 68 69
91 93 96 98 99 99 98 97 93 90 88 86 85 83 82 80 79 78 78 78 77 76 74 73 73 73 73 72 72 71 69 68 68 68 69 69 69 69 69 70 71 71
Wind_Direction
217 216 218 220 222 223 223 223 224 225 226 228 230 231 230 228 228 229 230 231 230 230 231 233 235 239 242 246 250 253 257 262 266 268 269 269 263 251 243 240 239 239
217 215 217 219 221 223 224 224 225 226 227 227 229 230 231 230 229 230 231 230 230 231 234 235 237 239 242 246 250 252 255 260 264 264 263 264 261 252 245 240 238 239
217 214 215 217 219 222 224 225 226 226 228 230 230 231 232 231 230 229 230 232 232 233 236 236 237 238 240 244 247 249 252 256 259 260 259 261 260 254 248 244 240 240
218 215 214 214 217 220 223 226 227 227 227 230 231 231 233 233 230 228 229 232 233 234 236 237 236 237 238 242 245 247 249 252 254 255 256 259 259 256 252 249 245 242
218 216 214 213 215 218 221 224 227 228 227 228 230 231 232 233 232 230 230 231 232 233 235 236 235 236 238 241 244 245 246 248 249 251 256 260 260 256 253 252 250 246
218 217 214 212 213 217 219 221 225 228 228 228 230 230 231 232 233 232 232 231 231 231 232 234 234 235 238 240 242 244 243 244 245 248 255 260 258 254 251 252 253 252
217 217 215 212 212 215 217 219 222 226 229 229 230 230 230 232 233 233 232 230 229 229 230 232 234 235 238 239 241 243 242 240 241 247 253 255 253 251 251 252 254 255
217 217 216 213 211 213 215 217 219 223 227 227 228 228 229 230 232 232 229 227 227 227 229 232 234 236 239 240 241 242 241 239 241 246 249 248 247 248 249 250 252 254
217 216 216 213 211 212 214 215 217 221 224 226 227 227 226 227 230 231 229 227 225 226 228 232 235 237 239 240 241 241 240 239 241 244 245 243 243 246 249 251 253 253
216 215 215 213 211 212 213 213 216 219 221 224 226 226 224 223 226 230 231 228 226 226 229 232 234 236 238 240 241 240 239 239 240 242 242 241 242 246 249 252 253 253
215 215 214 214 211 211 212 212 215 218 220 221 224 225 225 223 223 228 230 228 227 227 229 232 234 236 238 239 239 238 239 239 240 241 242 243 245 248 248 248 249 249
214 214 214 213 212 211 211 212 215 218 219 219 221 223 225 224 223 226 228 227 227 228 229 232 234 235 236 237 237 237 238 238 238 241 243 245 247 249 249 247 246 247
214 213 214 213 212 211 211 212 214 217 218 218 219 221 223 223 222 225 228 228 229 229 230 232 233 233 234 235 236 236 237 237 238 241 244 246 247 250 253 250 247 248
213 212 213 213 212 212 211 212 214 216 217 217 219 220 221 222 221 223 226 227 227 227 229 231 232 233 234 234 234 235 235 236 238 241 245 247 248 253 259 253 246 248
212 211 211 212 212 212 212 213 214 215 215 216 218 218 220 221 222 223 224 224 225 226 228 230 231 231 231 232 233 234 234 236 238 242 246 248 250 255 258 251 248 251
211 210 210 210 212 212 212 213 213 214 215 215 215 217 219 221 223 225 226 226 227 228 228 230 231 230 230 231 233 234 234 235 237 241 245 249 251 254 252 248 251 255
210 209 209 209 210 212 212 212 212 213 214 214 214 215 217 219 222 225 226 226 227 227 227 229 230 230 230 231 233 234 234 235 238 241 245 248 251 253 251 249 253 256
208 208 208 208 209 211 212 213 212 212 213 214 215 216 216 216 219 221 223 226 227 226 227 230 232 233 233 233 234 235 236 237 239 242 245 248 251 253 253 252 255 258
208 207 207 207 208 210 212 212 212 212 213 215 216 218 218 218 218 220 223 226 228 229 230 233 235 235 235 235 235 236 237 239 241 244 246 249 252 253 253 253 255 258
207 207 206 206 208 210 211 212 212 212 213 215 217 219 220 220 221 222 225 228 230 231 232 233 235 235 235 236 237 238 239 241 242 245 247 250 252 253 253 253 254 257
206 206 206 206 208 210 211 213 213 213 214 217 218 219 219 220 222 224 226 228 231 232 232 233 234 235 236 237 239 241 242 244 245 247 249 250 251 252 253 254 255 256
205 205 205 206 207 209 211 213 213 214 216 218 220 221 221 221 222 224 226 228 230 232 233 234 235 236 237 239 241 243 245 247 249 250 251 251 252 253 254 255 256 256
203 204 205 206 207 209 211 213 213 214 216 218 220 222 223 224 225 226 227 229 231 232 234 235 237 238 240 241 242 244 246 248 250 251 252 252 253 253 254 256 257 257
202 204 204 206 207 209 210 212 213 214 215 217 219 222 224 225 227 228 230 231 233 235 237 238 240 241 242 243 244 246 247 249 250 251 252 252 253 254 255 256 258 258
202 203 204 206 207 209 210 212 213 214 215 217 219 222 224 226 227 229 231 233 234 236 238 240 241 242 243 244 245 246 248 249 250 251 251 252 253 254 255 257 259 260
201 202 204 206 207 209 211 212 213 214 215 216 219 221 224 226 228 229 231 233 234 236 237 238 239 240 241 243 244 245 247 248 249 250 250 251 252 254 256 258 260 261
Height
10670 10673 10677 10681 10684 10688 10692 10695 10698 10702 10705 10707 10710 10714 10717 10721 10725 10728 10731 10734 10736 10739 10741 10743 10746 10748 10751 10753 10755 10756 10757 10758 10759 10759 10759 10760 10761 10762 10763 10765 10766 10767
10663 10667 10671 10676 10680 10683 10687 10691 10695 10698 10700 10702 10705 10709 10713 10718 10722 10724 10727 10729 10731 10734 10737 10739 10742 10745 10748 10750 10751 10753 10755 10756 10756 10756 10757 10757 10758 10759 10760 10762 10764 10765
10655 10660 10665 10671 10675 10678 10683 10687 10691 10694 10697 10698 10701 10705 10709 10714 10718 10720 10722 10724 10727 10730 10733 10736 10738 10741 10744 10746 10748 10749 10751 10752 10753 10753 10754 10755 10755 10756 10757 10759 10760 10762
10648 10653 10659 10665 10669 10673 10678 10682 10686 10690 10693 10694 10697 10701 10705 10710 10714 10717 10718 10720 10723 10726 10729 10732 10735 10737 10740 10742 10744 10746 10748 10749 10749 10750 10751 10752 10752 10753 10754 10755 10757 10759
10641 10646 10652 10659 10664 10668 10673 10677 10680 10684 10688 10690 10693 10697 10701 10705 10709 10712 10714 10716 10719 10723 10725 10728 10731 10733 10736 10738 10739 10742 10744 10745 10746 10747 10748 10749 10750 10750 10751 10752 10753 10755
10634 10639 10645 10652 10658 10663 10668 10671 10674 10678 10682 10685 10689 10693 10697 10700 10704 10707 10710 10713 10716 10719 10722 10724 10727 10729 10731 10733 10735 10738 10740 10741 10743 10744 10745 10746 10746 10747 10747 10748 10749 10751
10627 10631 10637 10646 10652 10657 10662 10666 10668 10672 10676 10680 10684 10688 10692 10694 10698 10701 10705 10709 10712 10715 10718 10720 10722 10724 10727 10729 10731 10734 10736 10737 10739 10741 10742 10743 10743 10743 10744 10744 10746 10748
10619 10624 10630 10639 10645 10649 10655 10659 10663 10666 10670 10674 10678 10682 10686 10689 10692 10696 10700 10704 10707 10710 10713 10716 10718 10720 10722 10725 10727 10729 10731 10733 10736 10737 10738 10739 10739 10739 10740 10740 10742 10744
10611 10617 10622 10630 10636 10642 10648 10653 10658 10662 10665 10668 10672 10677 10681 10684 10688 10692 10696 10699 10702 10705 10708 10711 10713 10715 10717 10719 10722 10725 10726 10729 10732 10733 10734 10734 10735 10735 10736 10737 10739 10741
10603 10608 10614 10621 10628 10634 10641 10647 10653 10656 10659 10663 10667 10672 10675 10680 10685 10687 10690 10694 10697 10700 10703 10705 10707 10710 10712 10714 10717 10720 10721 10724 10727 10729 10729 10730 10731 10733 10735 10735 10736 10737
10593 10600 10606 10612 10620 10628 10635 10642 10646 10649 10653 10658 10662 10665 10669 10675 10680 10681 10683 10688 10691 10693 10696 10699 10702 10705 10707 10710 10713 10715 10717 10720 10723 10724 10724 10725 10728 10730 10731 10731 10731 10732
10585 10592 10599 10605 10613 10622 10628 10635 10639 10643 10647 10652 10656 10659 10663 10669 10673 10674 10676 10681 10685 10687 10690 10693 10697 10701 10703 10706 10708 10711 10713 10716 10718 10718 10718 10721 10724 10726 10726 10726 10726 10728
10577 10586 10592 10599 10608 10615 10621 10627 10633 10636 10640 10645 10648 10652 10655 10660 10665 10667 10669 10675 10679 10682 10685 10689 10692 10696 10698 10701 10704 10706 10708 10710 10712 10712 10712 10715 10719 10720 10721 10721 10723 10726
10570 10578 10585 10594 10602 10608 10614 10620 10626 10628 10632 10636 10639 10643 10647 10652 10658 10661 10663 10668 10674 10677 10680 10684 10687 10690 10693 10695 10697 10699 10702 10704 10707 10707 10707 10709 10713 10715 10717 10717 10719 10722
10561 10570 10579 10587 10594 10600 10607 10615 10619 10622 10625 10628 10632 10636 10641 10646 10650 10652 10655 10661 10667 10671 10674 10677 10679 10681 10684 10687 10690 10693 10696 10699 10701 10701 10701 10703 10706 10710 10713 10714 10716 10718
10553 10563 10572 10579 10585 10592 10600 10607 10612 10615 10618 10621 10625 10629 10634 10639 10642 10645 10649 10654 10659 10663 10668 10669 10669 10671 10675 10679 10683 10687 10690 10693 10695 10695 10695 10696 10700 10705 10709 10711 10712 10713
10546 10555 10563 10571 10578 10585 10592 10598 10603 10606 10609 10613 10617 10621 10626 10632 10635 10638 10642 10645 10648 10654 10658 10658 10659 10662 10668 10674 10678 10681 10684 10686 10688 10689 10690 10691 10695 10699 10703 10705 10707 10708
10537 10546 10555 10564 10571 10577 10583 10589 10594 10597 10601 10604 10607 10611 10616 10621 10625 10629 10632 10634 10637 10644 10648 10648 10652 10658 10665 10669 10672 10675 10678 10680 10682 10683 10685 10687 10690 10693 10696 10699 10701 10702
10530 10538 10547 10556 10562 10568 10574 10580 10586 10591 10595 10598 10601 10604 10609 10614 10618 10621 10624 10626 10631 10638 10643 10645 10650 10656 10661 10664 10667 10669 10672 10675 10677 10678 10680 10682 10685 10688 10690 10692 10694 10696
10524 10532 10541 10548 10554 10560 10566 10572 10579 10585 10589 10592 10595 10600 10604 10610 10613 10616 10619 10622 10626 10633 10638 10642 10646 10651 10655 10658 10661 10663 10666 10669 10671 10673 10675 10678 10680 10683 10685 10686 10688 10689
10518 10526 10535 10542 10547 10553 10559 10565 10572 10578 10582 10586 10589 10594 10599 10604 10608 10611 10615 10618 10622 10627 10632 10636 10640 10645 10649 10652 10655 10657 10660 10663 10666 10668 10671 10673 10675 10677 10679 10681 10682 10683
10511 10520 10529 10535 10540 10547 10553 10559 10565 10571 10575 10579 10583 10588 10593 10598 10602 10606 10610 10613 10617 10620 10625 10630 10634 10639 10643 10647 10650 10652 10655 10658 10660 10663 10665 10668 10670 10672 10674 10675 10676 10677
10506 10514 10522 10528 10534 10540 10546 10552 10558 10564 10569 10573 10577 10581 10587 10592 10596 10600 10604 10608 10611 10615 10619 10624 10629 10634 10638 10641 10644 10647 10650 10652 10655 10657 10660 10662 10664 10666 10668 10669 10670 10671
10501 10509 10517 10523 10528 10534 10540 10545 10551 10558 10563 10568 10571 10575 10580 10586 10591 10595 10599 10603 10606 10610 10615 10620 10624 10629 10632 10635 10638 10642 10644 10647 10649 10651 10654 10656 10658 10660 10661 10662 10663 10664
10496 10504 10511 10518 10523 10528 10534 10539 10546 10553 10559 10563 10567 10571 10575 10581 10585 10589 10593 10597 10602 10606 10611 10616 10620 10624 10627 10630 10633 10636 10639 10642 10644 10646 10648 10650 10652 10653 10654 10655 10656 10657
10491 10499 10506 10512 10518 10523 10528 10534 10541 10549 10555 10559 10563 10567 10571 10576 10580 10584 10588 10592 10597 10602 10607 10611 10615 10618 10621 10624 10628 10631 10634 10636 10638 10640 10642 10644 10646 10647 10648 10649 10649 10650